Volver al catálogo

SL-12 DEB

LostHEO
NORAD 43525·DEBRIS·🇷🇺 Russia

Lanzado Mar 1, 2010 desde Baikonur Cosmodrome

Loading…

Próximos Pases (próximas 24 horas)

TLE

ObsoletoSource: Space-Track

Época: Sep 23, 2018, 22:05 UTC

1 43525U 10007X   18266.92067132 +.01153260 +00000-0 +32081+0 0  9991
2 43525 066.0409 135.0331 5723750 040.6770 014.6987 04.43619621004987

Sigue SL-12 DEB en tiempo real con AllMySat

Download on the App Store